Location: Barcelona
(41.3830°N, 2.1830°E)
Time: 12:45:16
(UTC+01:00)

ISS - Pass Details

Date: 27 October 2020
Orbit: 417 x 420 km, 51.6° (Epoch: 29 October)

Event Time Altitude Azimuth Distance (km) Brightness Sun altitude
Exits shadow 05:54:40 33° 312° (NW) 729 -3.0 -16.0°
Maximum altitude 05:55:10 35° 333° (NNW) 698 -2.9 -16.0°
Drops below altitude 10° 05:58:17 10° 41° (NE) 1,498 -0.4 -15.4°
Sets 06:00:31 0° 51° (NE) 2,363 0.8 -15.0°
